CAPE
2019 2406 2843 3193 3008 2917 2947 2976 2844 2902 2927 3157 3568 3710 3595 3657 3484 3339 3257 3099 2921 2852 2689 2595 2450 2396 2420 2393 2339 2275 2342 2364 2245 2089 2027 1903 1836 1813 1758 1697 1614 1539 1482 1391 1398 1327 1548 1650 1573 1334 1244 1342 1453 1394 1176 1030 971 981 1035 1113 749 637 609 449 258 107 81 75 81 47 7 0 0 5 16 5 6 15 63 58 16 9 9 18 23
2085 2120 2273 2554 2935 2879 2836 2788 2868 2774 2979 3232 3316 3564 3618 3542 3469 3351 3253 3147 3027 2866 2710 2574 2398 2473 2492 2404 2360 2470 2533 2416 2187 2059 1963 1925 1863 1797 1598 1858 1782 1632 1289 1240 1240 1334 1554 1604 1402 1151 1374 1442 1515 1435 1255 1023 845 739 978 1083 774 326 346 276 155 88 83 61 39 9 1 1 0 1 6 9 10 11 17 14 6 6 16 21 22
1926 2208 2375 2616 2878 3013 2958 2913 2830 2778 2844 3042 3289 3309 3386 3177 3359 3182 3191 3153 2974 2840 2689 2541 2422 2386 2395 2413 2446 2519 2556 2352 2188 2147 2052 1924 1862 1941 1878 1770 1591 1464 2008 1520 1184 1294 1363 1174 1374 1594 1402 1094 1013 1346 1204 873 781 722 640 485 382 260 175 187 181 130 99 65 26 13 0 0 0 1 19 19 17 16 10 14 17 14 15 18 15
2192 2598 2298 2774 2916 2956 2939 2852 2764 2696 2769 3027 3180 3185 3026 3157 3076 3038 3129 3024 2982 2803 2648 2519 2464 2396 2500 2448 2447 2551 2482 2460 2337 2229 2112 1999 1945 1935 1847 1778 1620 1366 1792 1814 1434 926 1129 1371 1648 1621 1388 1258 1010 997 975 739 537 487 504 457 348 266 216 169 118 192 228 130 32 0 0 0 78 107 40 32 32 43 8 2 28 29 15 15 13
2578 2555 2483 2511 2756 2905 2828 2802 2686 2699 2670 2862 3047 3170 3112 2902 2930 3129 3027 2954 2799 2746 2673 2603 2541 2505 2505 2526 2548 2580 2542 2449 2343 2253 2180 2096 1961 1899 1826 1668 1768 1523 1831 1604 1651 1467 1085 1429 1782 1677 1418 1286 1156 1010 720 610 506 304 200 222 196 116 141 162 160 140 155 185 17 0 0 0 2 32 5 5 12 5 0 0 10 5 10 8 7
2704 2904 3265 2445 2419 2762 2851 2762 2746 2678 2554 2651 3047 3091 3078 2926 2925 2981 2995 2796 2699 2683 2654 2655 2474 2388 2526 2530 2629 2642 2602 2497 2390 2281 2178 2090 1923 1871 1842 1720 1814 1912 1807 1525 1317 1478 1448 1575 1749 1674 1522 1265 1114 928 675 607 508 294 207 168 269 469 393 191 258 292 324 356 416 0 0 0 0 0 1 5 13 4 0 0 8 8 10 8 13
2628 2793 3068 2959 3080 2791 2870 2806 2695 2635 2525 2471 2628 2900 2986 2947 2809 2846 2862 2746 2509 2517 2455 2472 2454 2444 2565 2661 2694 2678 2592 2523 2411 2280 2089 1995 1913 1822 1766 1730 1609 1607 1979 1644 1372 1264 1304 1781 1608 1374 1403 1220 1141 986 827 598 473 331 198 189 302 438 516 429 242 399 348 481 442 871 0 0 0 0 0 3 1 0 2 7 6 7 7 15 15
2432 2694 2981 2560 2580 2859 2838 2808 2670 2668 2532 2593 2678 2692 2892 2848 2800 2789 2704 2622 2451 2311 2424 2466 2422 2512 2610 2689 2615 2607 2533 2403 2353 2178 2054 1965 1884 1731 1683 1629 1558 1520 1447 1671 1536 1270 1529 1536 1375 1229 1472 1368 1131 940 674 497 333 253 202 154 154 296 206 514 546 492 816 204 476 316 0 0 0 0 1 3 6 8 8 6 5 7 7 12 12
2182 2407 2405 2409 2702 2933 2876 2840 2692 2705 2667 2666 2626 2652 2672 2795 2848 2782 2694 2537 2386 2403 2380 2432 2493 2588 2711 2604 2557 2480 2460 2428 2350 2193 2063 1924 1616 1348 1302 1498 1523 1477 1431 1359 1467 1594 1159 947 1116 1417 1544 1265 926 586 385 277 157 180 228 250 162 180 589 268 576 598 840 721 411 0 0 0 0 0 6 3 10 11 10 9 8 8 6 7 4
1921 1886 1865 2086 2694 2890 2686 2691 2774 2704 2725 2674 2626 2578 2564 2647 2624 2610 2664 2477 2299 2451 2459 2478 2524 2572 2646 2580 2511 2466 2442 2433 2208 2082 1958 1768 1592 1388 1428 1422 1526 1434 1283 1772 1727 1606 1384 1275 1416 1506 1204 782 584 582 578 458 457 463 481 441 386 313 467 742 608 629 121 145 87 8 2 1 0 0 4 0 5 8 8 2 1 8 17 12 6
2080 2252 1966 2186 2821 2855 2792 2753 2724 2714 2686 2556 2490 2537 2670 2659 2606 2551 2404 2447 2406 2347 2431 2491 2487 2621 2572 2591 2408 2440 2403 2346 2076 1862 1752 1595 1522 1440 1329 1353 1277 1591 1843 2040 1990 1765 1714 1414 1267 965 693 644 684 717 623 584 529 537 558 511 524 451 647 696 813 265 131 10 24 262 187 62 0 0 38 2 1 4 5 6 10 9 8 4 10
2438 2819 2653 2572 2848 2781 2590 2469 2414 2574 2729 2652 2588 2561 2466 2344 2388 2310 2390 2318 2440 2453 2440 2429 2469 2399 2534 2414 2379 2334 2268 2221 1943 1728 1536 1449 1352 1444 1354 1339 1736 1966 2077 2231 1931 1818 1713 1549 900 779 735 802 818 701 662 607 620 590 526 543 356 517 424 582 440 381 139 5 17 114 27 0 0 5 40 72 29 3 8 22 5 5 4 9 13
2499 2716 2709 2594 2300 2341 2368 2316 2176 2184 2336 2381 2312 2192 2190 2114 2156 2084 2179 2216 2326 2374 2347 2426 2314 2346 2258 2244 2170 2286 2446 2368 2166 1821 1905 1816 1584 1449 1370 1545 1775 1916 2255 2085 1983 1786 1523 1284 903 1019 1092 1067 1018 974 927 816 745 700 671 676 710 385 704 664 569 505 0 0 10 36 5 0 4 71 142 159 46 3 3 5 5 6 4 6 5
2596 2443 2459 2233 2090 2136 2011 1950 1813 1641 1465 1534 1639 1802 1886 1992 1940 1884 2030 2399 2194 2256 2231 2356 2343 2319 2271 2163 2245 2476 2346 2250 2117 2036 1782 1739 1590 1822 1468 1714 1890 1926 2118 1969 1758 1797 1511 1211 1392 1405 1393 1293 1242 1221 1254 1168 1087 975 914 920 907 869 1036 1004 979 1054 0 2 268 32 2 10 4 19 0 0 1 2 2 4 5 3 5 5 4
3031 2614 2463 2425 2239 1955 1852 1788 1694 1445 1355 1210 1207 1114 1781 1709 1664 1832 1674 1876 2220 2274 2116 2189 2310 2438 2290 2156 2356 2271 2178 2152 2107 1733 1694 1621 1481 1560 1801 1834 1978 2069 2088 1794 1249 1420 1597 1468 1478 1501 1468 1482 1443 1451 1422 1445 1364 1276 1258 1234 1292 1345 1496 1183 1292 1350 20 38 199 64 17 12 51 15 3 0 0 0 1 3 3 4 5 4 5
3325 2821 2351 2446 2282 2132 1876 1698 1548 1416 1272 1301 1179 1044 1459 1812 1684 1447 1445 1609 1705 1827 1860 1828 1850 1988 2237 1882 2014 2161 2104 1972 1832 1608 1547 1568 1492 1314 1718 1908 2066 2057 2092 1977 1809 1545 1561 1590 1615 1673 1655 1571 1533 1510 1506 1534 1416 1455 1557 1517 1619 1689 1694 1704 1620 654 11 42 268 51 8 37 72 45 23 0 0 0 1 0 0 1 2 3 1
3147 2920 2178 2066 2038 2000 1676 1572 1446 1275 1278 1425 1420 1170 1215 1476 1589 1474 1211 1409 1607 1689 1698 1678 1652 1842 2221 2064 1879 1976 1958 1896 1621 1604 1488 1386 1179 1038 1230 1632 1888 2055 2034 1874 1852 1646 1469 1459 1752 1809 1736 1622 1621 1668 1613 1636 1482 1524 1550 1526 1727 1562 1878 1981 1874 1022 0 18 281 72 14 44 84 67 35 7 1 4 0 2 30 4 1 1 1
3139 2947 2344 2210 2066 1838 1731 1422 1373 1498 1603 1658 1498 1368 1190 1324 1341 1365 1286 1368 1481 1560 1652 1630 1617 1834 2169 2057 1876 1984 1974 1827 1505 1348 1288 1231 1000 923 1138 1401 1684 1994 1974 1946 1777 1676 1458 1490 1649 1784 1718 1590 1618 1661 1486 1647 1650 1586 1438 1628 1592 1893 1797 1884 1767 1201 0 59 388 187 60 120 142 120 80 30 16 16 0 8 88 5 0 0 0
2725 2747 2696 2620 2405 2144 1869 1570 1796 1651 1461 1667 1610 1460 1314 1169 1303 1399 1448 1381 1425 1533 1582 1638 1668 1849 2144 2064 1961 1992 2015 1845 1726 1394 1318 1282 1208 972 1117 1391 1666 1649 1732 1857 1750 1661 1591 1618 1562 1762 1730 1595 1585 1557 1630 1727 1659 1614 1584 1457 1649 1788 2044 2148 1672 867 0 181 126 50 76 344 225 147 133 74 49 15 0 0 1 1 0 0 0
2631 2872 2798 2701 2507 2358 2247 2021 2195 2126 2034 2061 1862 1490 1393 1199 1222 1208 1291 1343 1390 1540 1548 1694 1725 1998 2104 2060 1947 1839 1996 1798 1646 1385 1325 1295 1199 1155 1073 1568 1587 1540 1495 1691 1623 1667 1017 1251 1381 1594 1697 1715 1651 1727 1760 1693 1605 1557 1470 1512 1668 1844 1896 1501 1063 218 0 629 139 29 541 419 250 203 174 127 92 47 9 2 0 0 0 0 0
2612 2736 2721 2682 2764 2544 2408 2353 2403 2183 2094 2076 1925 1710 1362 1253 1257 1284 1186 1273 1347 1590 1579 1659 1954 1966 2103 2147 2010 1834 1719 1871 1729 1529 1306 1134 1030 1127 1421 1530 1539 1417 1431 1660 1731 1650 1258 1502 1681 1738 1724 1732 1782 1713 1537 1658 1585 1559 1398 1469 1881 2018 1571 1365 919 137 1 604 179 264 826 590 450 346 227 208 159 90 58 13 3 1 0 0 0
2370 2476 2641 2880 2652 2654 2568 2422 2246 2299 2338 2039 1751 1871 1641 1607 1476 1344 1284 1342 1450 1488 1559 1752 1635 2000 1777 1993 1772 1744 1627 1503 1442 1516 1672 1321 1180 1549 1837 1780 1665 1466 1497 1644 1692 1778 1648 1613 1713 1759 1730 1715 1670 1536 1417 1708 1574 1451 1460 1572 1948 1819 1305 1279 670 98 77 329 155 824 1061 785 553 446 316 278 222 164 100 36 9 6 0 0 0
2509 2313 2077 2705 2438 2307 2274 2460 2490 2508 2277 1989 1867 1964 1763 1822 1628 1619 1552 1457 1621 1690 1465 1189 1444 1091 1144 828 1030 1409 1218 1099 1196 1490 1685 1211 1567 1622 1868 1788 1381 1274 1341 1364 1552 1648 1623 1593 1695 1679 1522 1536 1627 1209 701 565 970 1486 1597 1569 1543 1582 1539 595 324 111 73 486 226 1261 1193 988 794 595 487 388 212 210 175 77 28 11 3 0 0
2192 2041 2098 2464 2465 2423 2624 2403 2397 2549 2201 1800 2047 2029 1979 1869 1815 1699 1692 1615 1733 1207 1546 1336 1170 847 1190 926 1002 1310 1068 989 1210 1416 1458 1527 1587 1520 1595 1479 1409 1352 1217 1207 1493 1525 1356 1410 1596 1477 1615 1489 980 430 180 413 110 726 1135 1027 1026 1194 781 261 424 71 18 719 657 1722 1333 1087 1017 869 645 474 395 232 209 159 65 20 8 0 0
1861 1639 1829 2380 2584 2867 2766 2920 2694 2550 2099 2081 1958 2222 1796 1558 1604 1731 1628 1580 1565 1334 1704 1448 1103 1276 1314 843 1230 852 909 866 1065 1341 1497 1447 1348 1262 1286 1322 1331 1213 1114 1358 1424 1212 1414 1276 1416 1616 1402 978 544 384 132 270 215 221 255 541 657 665 467 397 230 237 13 741 1073 1889 1544 1283 1132 1112 846 579 586 316 237 189 135 59 24 10 0
1788 1520 1904 2259 2570 2886 2723 2747 2752 2606 2145 1888 1820 1954 1982 1724 1570 1624 1589 1513 1761 1595 1591 1313 1296 1311 1016 1132 621 842 803 930 1077 1070 1133 1637 1214 1012 1019 1250 1417 1412 1277 1511 1546 1367 1079 941 1014 699 1032 925 478 120 295 570 318 304 49 258 438 500 476 236 114 217 399 946 1617 2113 1802 1495 1362 1160 1060 741 686 528 288 279 204 147 58 21 6
1628 1581 1770 1685 2527 2805 2771 2723 2609 2569 2396 2103 1957 1758 2144 2026 1980 1810 1683 1429 1630 1474 1346 1424 1344 859 876 1216 698 920 588 586 730 793 990 1281 1295 1367 1476 1537 1282 1395 1818 1633 1205 1178 1303 1652 1362 943 872 794 557 307 241 392 227 177 166 228 228 290 326 222 202 54 896 1027 1675 2207 2055 1795 1416 1519 1285 946 886 613 485 355 343 246 163 63 32
1767 1846 1788 1918 2328 2707 2872 2685 2462 2506 2677 2187 2154 2074 1993 2016 1944 1706 1575 1520 1512 1266 1272 1289 1295 960 788 1019 788 852 603 655 583 924 645 1002 1105 1217 1458 1334 1275 1194 1330 1441 1427 1510 1538 1514 1249 1285 1046 769 520 458 73 9 237 245 72 69 248 154 263 177 210 23 443 790 1085 2156 2116 1950 1522 1759 1447 1297 1075 921 768 631 599 423 325 187 118
1833 2086 2154 2238 2295 2610 2807 2798 2593 2457 2396 2481 1924 1983 1930 1664 1785 1675 1622 1674 1467 1581 1613 1391 1219 1362 1412 1168 762 684 751 913 650 1029 1249 998 1276 1304 1388 1108 1090 1312 1248 1142 1208 1300 1265 1460 1344 1372 1314 932 672 564 418 29 113 8 47 63 59 93 188 196 170 93 88 926 875 1583 2159 1951 1626 1603 1729 1599 1377 1086 1043 898 782 759 583 459 340
2162 2150 2051 2044 2002 2233 2448 2517 2333 2151 2189 1894 1979 2064 1887 1708 1620 1930 1697 1970 1781 1655 1730 1507 1634 1607 1627 1132 828 632 872 1103 938 833 1051 1052 972 751 605 770 832 821 984 1022 994 997 1078 1408 1306 1154 1180 921 943 650 506 191 47 24 0 2 98 82 87 91 68 47 60 874 845 1328 2149 2004 1668 1498 1903 1803 1568 1468 1191 1097 978 887 820 671 603
2214 2055 2039 1888 1950 1956 1989 2071 2017 1792 1990 1892 2020 1906 1939 1755 1759 1650 1592 1714 1751 1719 1677 1532 1601 1845 1470 957 829 1012 1158 1164 767 740 897 846 876 478 308 410 340 643 850 1048 938 620 605 473 550 1390 1218 1044 643 478 203 145 447 818 121 0 0 18 10 94 22 1 6 101 1238 1249 1910 2079 1767 1649 1673 1698 1745 1579 1554 1378 1251 1111 956 889 778
2022 2045 1896 1962 2026 2056 2008 1937 2001 1903 2044 1818 1710 1753 1778 1654 1623 1562 1696 1702 1541 1363 1455 1635 1556 1477 1405 981 1127 820 839 1124 757 753 764 527 514 537 228 353 628 722 827 774 1047 1010 950 735 500 349 659 747 838 713 332 288 326 546 704 618 651 773 487 175 8 1 2 24 1068 863 1018 1362 2063 1414 1338 1598 1744 1855 1682 1621 1543 1414 1241 1083 978
1740 2079 2027 2207 2147 2057 1993 1889 1959 1828 1696 1793 2033 2088 1987 1868 1912 2031 2008 1830 1507 1220 1300 1469 1535 1387 1356 984 890 897 985 1278 1150 921 938 344 480 387 507 758 572 802 962 584 591 770 586 576 668 537 487 565 608 481 503 339 559 1141 1226 1077 1139 1308 1024 633 300 194 322 110 480 568 1092 977 1340 1371 1493 1383 1641 1784 1858 1837 1779 1635 1471 1381 1266
1877 1938 2188 2060 1967 2006 1943 1783 1814 1800 1838 1918 2067 2250 2333 2153 2085 2106 1840 1822 1718 1633 1485 1335 1400 1396 1472 1276 859 993 1092 1302 1117 942 906 867 492 408 506 820 990 876 631 641 728 666 676 725 615 617 458 336 258 263 168 240 452 1287 1604 1323 1685 1594 1011 842 871 837 693 240 149 223 748 958 1047 1352 1378 1564 1406 1609 1890 1992 1967 1832 1758 1643 1572
1739 1977 1958 1885 1934 1953 1955 1787 1810 1855 1714 1906 2096 2248 2438 2006 2070 1987 1983 1796 1783 1588 1660 1560 1298 1429 1293 1441 1264 1371 1244 1132 1283 1414 1171 847 649 693 347 936 1031 977 941 747 479 451 714 698 535 524 560 305 344 368 271 133 73 724 2081 1968 1551 1414 1877 1646 1365 996 785 752 319 79 1008 1499 1849 1508 942 1192 1358 1489 1654 1887 2023 2038 2012 1974 1791
1874 1928 1850 1958 1918 1907 1958 1967 1885 1822 1896 2037 2210 2326 2165 2092 1820 1834 2163 1853 1742 1529 1673 1465 1443 1316 1318 1227 1021 1120 1112 1087 1069 1172 1372 968 790 588 926 826 602 912 851 897 923 740 977 577 884 639 818 715 668 713 733 308 184 418 1116 2155 2015 1486 1832 1558 1439 1450 1268 863 660 730 379 502 852 1892 2448 1891 1054 1180 1570 1705 1920 2058 2069 2069 2024
1716 1771 1747 1869 1889 1953 2016 2076 1983 1916 1920 1894 1809 1773 1829 1728 1564 1674 1742 2056 1976 1735 1527 1593 1460 1300 1194 1263 1430 1480 1025 911 1001 1186 1301 1058 935 854 956 862 788 845 881 851 823 452 527 931 905 906 1089 842 784 825 759 618 762 433 390 784 1683 1891 1584 1652 1145 1476 1566 1054 916 1237 986 1023 1016 1064 1054 1760 2358 1394 1353 1554 1657 1923 1970 1994 2014
1729 1691 1718 1925 1884 2026 2092 2165 2104 1997 2119 1994 1813 1681 1816 1683 1598 1700 1639 1760 1579 1616 1773 1584 1502 1639 1214 1111 1200 1468 1276 1149 1097 1094 1287 944 876 886 911 1025 923 834 598 1006 654 345 473 548 657 440 913 1139 775 896 824 756 505 352 381 464 1180 1818 1820 1976 1720 1480 1272 1137 1052 748 807 983 1196 862 1254 1727 1846 2082 2149 1722 1507 1642 1795 1857 1932
1522 1496 1639 1798 1908 1949 2034 2078 2043 2020 1959 1882 1644 1552 1498 1713 1782 1581 1515 1510 1442 1363 1336 1191 1238 1420 1220 1144 1258 1472 1446 1238 1114 1115 1072 900 666 779 878 966 944 984 805 453 502 485 500 765 645 806 1099 820 502 469 372 468 807 452 342 411 820 1723 1998 1648 1105 1306 1206 1254 1578 1361 876 1373 870 1310 1413 1486 1373 1467 1612 2167 1889 1381 1380 1744 1728
1450 1483 1564 1628 1783 1870 1954 2032 1973 1877 1690 1410 1184 1122 1119 1277 1274 1209 1065 955 763 841 1000 876 1053 1062 767 1038 954 930 848 1112 1164 1185 1198 1227 849 970 1218 1131 641 873 848 712 809 982 674 793 588 563 899 768 822 600 718 989 974 629 479 508 1027 1183 1148 2015 1631 1331 1367 1122 1052 905 958 942 744 910 1120 982 718 1528 1671 1860 2315 1794 1384 1505 1555
1397 1512 1418 1458 1532 1587 1847 1796 1786 1630 1272 1065 969 776 962 949 1046 1229 1008 733 800 820 1164 1021 785 893 884 661 827 856 593 584 667 765 987 677 971 811 1119 616 802 939 1207 1132 1117 938 573 923 780 1022 756 686 844 1009 835 412 772 342 282 412 920 1149 923 1063 841 810 756 885 813 481 394 339 722 796 1035 800 616 1102 1261 1210 1932 2329 2035 1829 1697
1382 1390 1432 1494 1395 1443 1561 1591 1524 1382 1497 1419 1603 1532 1201 1130 1252 896 845 571 412 647 617 735 950 841 795 652 508 439 653 659 575 490 378 620 1170 888 975 1152 1155 1036 1046 939 1030 910 763 659 727 640 488 409 402 322 696 253 720 396 262 195 491 896 1308 1672 550 312 256 360 852 1273 991 890 769 554 613 1029 984 1107 853 1192 1145 1211 1750 2005 2195
1353 1418 1434 1469 1511 1446 1490 1485 1375 1364 1530 1786 1472 1629 1601 1294 1482 960 1028 784 1182 1057 751 843 898 614 601 256 146 152 230 320 459 426 680 294 689 713 857 759 744 907 1026 1228 1034 1052 1135 921 693 779 811 662 442 372 321 380 340 261 408 318 417 196 1210 1173 812 529 325 540 685 255 253 742 494 248 610 932 1128 1021 724 574 563 687 908 1104 885
1476 1397 1550 1551 1534 1496 1433 1490 1426 1551 1739 1762 1577 1682 1574 1322 1505 1079 1206 1126 1064 884 571 362 89 61 16 87 58 22 19 59 201 80 45 303 480 677 686 842 984 812 970 986 958 1148 1147 1127 1035 860 815 508 524 532 434 410 341 238 209 125 118 110 152 495 214 263 199 458 332 142 90 198 473 129 441 832 647 407 334 265 226 415 497 695 366
1553 1491 1669 1643 1482 1575 1526 1501 1497 1802 1774 1832 1858 1836 1726 1591 1664 1384 1243 744 520 451 544 599 425 265 247 195 148 89 107 129 182 404 251 236 379 504 571 494 504 644 590 660 538 477 355 365 511 480 579 719 510 777 534 494 314 344 286 185 150 158 175 263 180 312 472 117 97 88 145 103 32 345 130 202 64 246 159 187 792 610 703 775 788
1726 1835 1666 1771 1673 1720 1379 1636 1443 1858 1784 1778 2004 2060 1923 1958 1602 1416 1042 601 892 1018 1184 305 39 283 52 226 96 44 251 398 240 203 220 267 494 332 338 361 393 412 449 470 329 135 306 169 13 140 97 123 54 127 1042 910 580 277 70 178 366 320 177 333 296 232 412 465 338 323 186 127 86 25 55 6 18 290 106 146 271 831 619 452 533
1696 1978 1828 1896 1716 1862 1544 1725 1533 1686 1775 1802 2013 2059 1872 1742 1486 1085 724 918 1088 1166 933 638 719 362 411 437 303 274 117 371 283 176 174 227 364 220 269 231 383 331 255 287 288 159 44 30 33 42 45 26 28 19 31 19 413 497 185 76 356 401 170 174 284 487 293 1258 653 313 179 90 338 356 165 62 35 112 234 73 418 1090 815 790 622
1912 1992 2052 1959 1885 1929 1536 1791 1484 1673 1623 1697 1907 2019 1639 1687 1493 1182 1086 1398 1255 1324 916 547 505 515 510 292 522 537 240 294 469 244 234 71 286 406 320 219 206 46 80 257 63 218 91 25 68 59 102 104 16 0 0 0 15 67 58 46 507 534 372 251 318 215 164 106 82 938 498 172 318 191 270 322 298 53 59 89 34 328 252 441 261
1016 1694 2080 2091 1964 1976 1562 1817 1533 1714 1702 1788 1826 1527 1759 1767 1515 1585 1674 1550 1603 850 463 460 559 508 524 563 518 544 585 355 179 116 78 46 76 5 19 19 1 0 1 88 2 0 1 4 54 6 18 19 3 0 2 1 0 0 0 0 0 0 0 53 136 209 148 9 0 0 0 155 155 98 633 488 363 168 92 50 18 28 7 16 27
557 946 1412 2192 2052 1984 1573 1755 1661 1670 1762 1857 1779 1505 1743 1802 1624 1827 1588 1648 901 626 356 488 646 784 700 697 330 366 322 457 335 227 91 7 26 54 5 0 0 0 0 0 0 11 15 4 16 6 0 2 1 17 0 0 0 0 0 0 1 0 4 12 32 1 0 0 0 0 0 0 0 109 387 232 130 52 2 1 4 0 0 3 16
648 788 1010 1399 1757 1882 1896 1563 1892 1679 1822 1896 1555 1679 1768 1770 1725 1794 1536 1429 690 522 603 547 762 701 636 390 466 516 299 420 372 167 165 0 0 0 3 10 2 46 15 0 0 72 0 0 0 0 0 5 2 0 2 0 0 0 0 0 0 0 3 0 0 0 0 0 0 0 0 0 0 0 0 1 0 0 0 0 0 0 0 0 0
Wind_Speed
28 30 29 34 38 41 39 35 33 31 31 31 30 32 33 34 35 35 36 37 36 36 33 33 33 34 34 34 33 32 31 29 28 27 27 27 27 27 26 26 25 22 20 20 20 20 22 22 23 24 26 25 25 26 27 26 25 24 22 21 22 21 21 19 18 17 nan nan nan nan nan nan nan nan nan nan nan nan nan nan nan nan nan nan nan
31 31 31 37 38 38 37 34 33 32 34 34 34 34 36 36 35 35 35 35 35 35 33 32 32 32 32 33 33 32 31 30 28 27 26 26 26 26 27 27 26 24 19 18 18 19 21 22 22 25 27 25 25 26 26 26 25 24 22 20 20 20 18 18 18 nan nan nan nan nan nan nan nan nan nan nan nan nan nan nan nan nan nan nan nan
32 32 32 37 37 35 34 34 35 36 37 38 37 37 37 36 35 33 33 33 33 33 32 31 31 31 30 31 31 31 31 30 29 28 27 26 25 25 27 27 26 25 23 18 17 18 20 21 23 25 25 25 23 25 26 25 24 24 24 22 21 20 18 16 16 17 nan nan nan nan nan nan nan nan nan nan nan nan nan nan nan nan nan nan nan
34 32 35 35 35 35 36 37 38 38 40 39 38 37 35 34 33 32 32 31 31 31 32 32 31 31 31 30 30 31 30 30 30 29 28 27 26 25 26 26 25 24 22 23 21 17 20 20 24 25 24 24 24 20 25 24 23 23 23 22 20 19 17 16 15 15 16 19 nan nan nan nan nan 19 nan nan nan nan nan nan nan nan nan nan nan
35 32 32 29 29 31 34 37 37 37 38 39 36 33 32 32 32 32 32 32 32 32 32 33 33 32 32 32 31 31 31 31 30 30 29 28 26 26 25 25 25 22 23 23 21 18 18 22 24 24 22 21 20 22 23 22 22 22 21 20 19 16 15 14 14 14 16 19 nan nan nan nan nan nan nan nan nan nan nan nan nan nan nan nan nan
36 33 26 24 26 28 32 33 33 35 35 34 32 31 31 31 31 31 33 34 34 34 34 34 33 34 33 33 33 33 32 31 31 31 30 29 28 26 26 25 25 24 24 24 22 20 17 21 22 22 21 22 23 23 23 21 20 21 21 19 18 15 13 12 12 12 14 15 14 nan nan nan nan nan nan nan nan nan nan nan nan nan nan nan nan
41 34 29 28 21 22 28 28 28 31 31 29 29 30 31 31 31 32 33 34 35 35 34 34 34 34 34 34 34 34 33 32 32 31 30 30 29 27 26 25 24 24 24 23 22 22 15 21 21 21 23 23 23 23 22 21 20 20 20 19 16 14 12 10 8 11 11 9 6 5 nan nan nan nan nan nan nan nan nan nan nan nan nan nan nan
40 29 27 25 20 20 23 22 23 27 28 27 28 29 30 31 32 32 33 33 33 33 33 33 33 33 34 35 35 34 34 34 32 32 31 30 30 29 27 27 26 25 24 24 25 22 24 22 21 23 24 24 24 23 21 20 19 19 18 17 13 11 9 7 5 6 12 7 7 6 nan nan nan nan nan nan nan nan nan nan nan nan nan nan nan
33 26 22 20 19 21 20 19 20 22 23 25 27 29 30 30 31 31 31 32 32 32 31 31 32 32 34 35 35 35 34 34 34 33 32 31 30 29 29 28 27 26 25 24 25 28 25 22 14 24 25 25 24 22 21 19 19 17 16 14 11 8 6 3 3 4 5 5 7 nan nan nan nan nan nan nan nan nan nan nan nan nan nan nan nan
25 21 19 17 17 20 21 21 22 22 22 22 24 27 28 28 28 29 28 29 29 30 31 30 31 31 33 34 35 35 34 35 35 34 32 31 31 29 29 28 28 27 26 29 29 26 23 16 21 23 24 25 23 21 20 20 18 17 15 12 8 5 5 4 3 3 2 5 nan nan nan nan nan nan nan nan nan nan nan nan nan nan nan nan nan
19 17 17 19 20 21 19 18 20 21 21 20 20 21 25 28 27 27 27 27 28 28 29 29 28 30 32 35 35 34 34 34 34 34 33 31 31 30 29 28 28 30 31 30 29 25 22 22 24 24 24 24 23 21 19 18 17 15 13 9 7 7 7 7 7 3 3 nan nan 14 15 nan nan nan nan nan nan nan nan nan nan nan nan nan nan
15 15 16 17 22 20 19 16 16 17 18 18 18 18 19 22 23 24 24 25 25 25 26 28 28 28 30 33 36 34 33 34 33 33 32 30 31 31 30 30 31 28 27 30 29 26 24 23 25 25 25 23 23 22 19 18 17 15 12 10 7 6 5 6 6 6 3 nan nan 15 nan nan nan nan nan nan nan nan nan nan nan nan nan nan nan
13 15 16 16 16 16 15 16 17 17 17 17 17 17 18 19 21 22 22 21 23 23 24 27 28 28 29 30 32 34 33 34 34 33 34 35 33 31 31 31 31 28 29 29 29 27 25 25 27 26 26 24 24 23 22 20 19 17 14 12 8 7 5 6 5 5 nan nan nan nan nan nan nan nan 16 17 nan nan nan nan nan nan nan nan nan
15 16 16 14 10 13 16 16 17 17 17 17 17 15 17 19 20 20 21 21 20 20 22 25 28 29 29 27 27 30 31 32 33 35 35 36 33 32 29 30 30 30 29 29 29 26 26 29 27 27 26 25 24 23 21 20 19 17 15 12 10 9 7 7 5 4 nan nan 17 nan nan nan nan nan nan nan nan nan nan nan nan nan nan nan nan
19 18 15 13 9 10 16 15 15 15 17 16 14 15 15 17 17 18 20 20 22 23 24 25 27 29 27 23 22 24 28 31 32 34 35 34 32 31 30 31 30 29 29 32 30 21 28 30 28 27 26 25 23 22 21 20 19 17 15 14 13 12 10 8 8 4 nan nan 17 nan nan nan nan nan nan nan nan nan nan nan nan nan nan nan nan
21 19 15 14 12 12 11 13 14 15 14 15 13 13 13 15 14 16 18 18 20 21 22 22 24 25 24 20 19 22 25 29 31 33 33 30 30 30 30 30 29 29 28 29 28 27 29 30 30 28 26 24 23 22 21 20 19 17 16 15 14 14 13 11 10 10 nan nan 21 nan nan nan nan nan nan nan nan nan nan nan nan nan nan nan nan
21 22 18 16 16 15 13 14 15 15 14 13 13 14 13 14 14 15 16 16 18 18 19 20 21 21 21 19 19 20 21 24 28 31 31 29 27 28 27 26 26 27 28 28 29 28 29 29 30 29 27 25 23 22 21 20 19 18 17 15 13 14 14 13 11 10 nan nan 22 nan nan nan nan nan nan nan nan nan nan nan nan nan nan nan nan
17 21 19 17 16 15 14 16 17 15 13 13 12 13 13 13 12 13 14 14 15 15 16 17 18 19 19 20 19 19 19 21 24 28 27 25 24 24 24 25 25 26 27 27 28 28 28 28 29 29 27 25 24 21 20 20 20 19 18 16 14 14 14 14 13 10 nan nan 23 21 nan 14 18 17 nan nan nan nan nan nan nan nan nan nan nan
13 18 18 15 15 15 15 15 15 15 14 11 10 11 11 11 11 12 13 14 13 13 14 15 17 16 17 20 19 19 18 20 23 24 24 22 22 22 21 22 26 25 25 25 26 26 27 27 28 29 27 25 25 23 20 20 20 19 18 16 15 14 14 13 13 13 nan 23 21 nan nan 20 17 16 16 nan nan nan nan nan nan nan nan nan nan
15 16 17 14 14 14 13 13 13 14 12 11 12 12 12 12 11 11 11 12 12 13 13 14 14 13 17 19 19 17 18 19 21 22 21 21 22 19 20 21 26 25 25 24 24 27 30 22 28 28 26 25 25 24 20 18 18 18 17 17 16 16 14 12 10 13 nan 23 21 nan 22 20 18 16 15 15 nan nan nan nan nan nan nan nan nan
14 17 17 14 12 12 12 11 12 12 12 12 11 12 13 13 12 12 12 10 12 13 13 13 13 15 17 18 18 14 15 16 16 19 20 20 22 17 19 27 27 26 25 25 23 25 25 24 27 27 25 24 24 23 20 18 16 16 17 17 18 18 16 13 11 16 nan 21 22 21 24 21 19 17 15 14 14 nan nan nan nan nan nan nan nan
14 15 16 16 15 13 13 11 11 11 12 11 11 12 13 13 12 12 12 12 12 12 11 11 12 13 16 15 14 15 14 13 13 15 17 20 20 22 24 27 28 26 24 25 23 23 23 24 25 25 25 23 22 25 23 18 15 16 16 16 19 19 17 14 16 nan nan 22 22 21 24 22 20 17 16 13 12 13 nan nan nan nan nan nan nan
19 17 15 15 15 13 13 13 10 10 11 13 12 13 14 12 13 12 11 12 12 10 11 11 10 7 15 14 14 12 14 13 13 12 14 19 21 22 24 26 27 27 25 24 23 22 22 22 22 23 22 21 24 25 24 23 22 16 18 20 21 20 18 19 21 18 nan 24 21 23 23 23 21 17 16 14 12 12 12 nan nan nan nan nan nan
23 22 19 16 15 14 14 14 14 11 11 12 12 12 12 12 10 10 8 7 8 7 9 10 7 6 10 15 12 11 16 13 9 12 17 19 21 24 25 26 26 26 27 24 22 21 20 20 20 20 22 24 25 25 23 24 24 24 23 22 21 21 21 22 21 nan nan 24 21 24 22 23 23 19 16 15 13 11 12 12 nan nan nan nan nan
23 21 19 16 18 16 15 14 12 11 11 12 11 10 12 11 9 7 7 8 8 8 9 8 6 7 7 14 14 12 14 14 14 14 16 18 20 20 21 21 22 24 25 25 24 22 21 21 22 22 23 23 23 23 22 24 24 24 23 22 20 20 22 22 20 20 nan 23 21 23 22 23 23 20 18 16 14 13 12 13 11 nan nan nan nan
22 21 20 18 18 17 16 15 14 12 12 14 13 11 10 9 9 9 9 7 9 10 10 9 9 10 8 12 14 9 14 10 16 13 15 19 20 20 20 22 21 23 22 24 26 25 23 24 26 25 24 22 22 22 25 25 23 24 nan 21 20 20 22 23 21 17 21 23 22 23 23 23 22 20 20 18 16 15 13 13 12 9 nan nan nan
22 21 19 18 18 16 16 15 14 11 11 13 14 12 11 9 8 9 9 8 9 11 10 10 10 9 8 13 15 11 14 11 12 11 11 18 20 21 22 23 21 21 21 22 23 25 26 26 27 28 28 27 26 25 23 22 20 22 21 21 21 22 22 22 23 nan 26 24 22 25 24 24 23 20 19 20 19 16 15 14 13 10 9 nan nan
22 22 21 18 17 16 16 15 14 12 10 11 13 12 12 13 12 11 11 11 12 11 10 11 11 11 10 11 16 13 15 14 15 14 8 11 20 19 21 23 21 21 21 19 21 24 26 26 27 30 30 29 28 27 nan nan 25 22 nan nan 23 22 21 21 23 nan 24 24 23 23 25 24 24 21 18 20 20 18 17 15 14 12 10 8 8
22 21 20 18 17 16 16 16 13 12 11 11 11 10 11 13 14 13 13 14 11 13 13 13 11 11 10 13 16 15 14 12 14 14 13 13 14 16 19 22 22 23 23 20 19 21 23 25 27 29 30 30 30 29 30 nan 27 nan nan nan nan nan 22 21 20 nan nan 25 24 22 25 27 25 22 21 20 19 20 18 16 15 12 10 9 8
21 21 19 17 17 17 17 15 13 12 9 12 11 10 12 12 12 12 14 13 13 12 13 13 12 11 11 14 16 15 14 14 12 12 13 14 15 19 16 21 22 21 21 22 21 19 21 25 27 29 29 29 30 32 34 31 nan nan nan nan nan nan nan nan nan nan nan 27 24 22 24 26 26 24 22 20 20 19 17 16 15 13 10 9 9
21 21 19 18 17 17 17 15 13 12 11 12 11 12 10 13 13 13 15 14 16 13 13 14 13 13 13 14 15 13 14 15 16 16 15 13 15 17 17 18 19 15 17 20 21 19 20 22 24 27 26 28 27 30 32 31 29 27 24 nan nan nan nan nan nan nan nan 23 24 23 20 24 26 26 23 21 19 18 17 15 14 12 10 9 9
21 21 20 19 18 18 16 15 14 13 13 13 13 13 12 13 13 14 14 16 18 15 14 13 14 12 13 12 13 14 15 16 18 18 16 14 14 17 17 18 18 16 17 19 20 19 21 22 23 25 26 25 25 25 25 29 26 22 25 24 25 26 27 26 nan nan nan nan 26 22 21 19 22 24 24 23 20 18 17 15 14 12 10 9 8
21 21 21 20 19 17 16 15 14 14 14 15 15 15 14 15 15 15 14 15 18 18 16 14 14 14 13 13 13 14 13 16 16 17 18 18 17 16 18 20 20 20 23 23 22 22 22 22 23 26 27 27 24 23 25 22 16 20 25 24 25 27 27 27 27 27 27 25 27 23 22 18 17 19 22 23 22 20 17 16 16 14 12 11 9
21 21 22 21 18 16 15 14 14 15 15 14 15 15 14 16 17 16 15 15 15 17 19 18 17 16 14 16 15 15 15 13 17 16 18 18 18 17 18 18 21 23 25 27 27 24 24 25 25 26 27 27 26 27 26 19 14 20 23 23 27 26 26 27 27 26 27 30 32 31 21 20 19 18 18 20 22 22 20 18 17 16 14 13 12
22 22 23 21 18 17 15 15 15 16 15 16 16 16 15 16 17 17 17 16 17 17 15 16 18 16 15 15 15 16 17 18 19 19 19 19 17 16 17 17 18 22 25 26 26 24 26 26 27 26 27 29 29 28 26 23 nan 21 26 27 26 26 25 25 26 25 25 31 33 nan 28 24 21 21 19 20 18 18 19 18 17 16 15 14 13
23 22 22 20 20 18 17 18 17 17 17 17 18 16 17 16 17 18 17 17 17 17 17 16 18 17 16 15 15 15 16 17 18 20 21 20 18 15 14 17 16 18 21 23 24 25 27 27 26 24 23 27 30 25 23 23 27 28 26 27 27 27 26 26 25 24 25 30 31 29 27 27 26 24 18 21 19 17 14 15 16 16 15 14 13
22 22 21 20 20 19 19 20 19 19 19 20 20 19 18 18 19 19 18 18 18 18 18 19 18 17 16 16 16 16 16 16 17 19 19 20 19 17 14 16 17 16 19 18 20 22 25 27 26 24 23 25 29 28 27 29 27 23 23 25 28 28 28 28 26 25 26 29 28 25 25 26 22 22 20 19 20 19 16 13 13 14 16 15 14
22 21 20 20 20 20 19 20 21 21 21 21 21 20 21 20 20 20 19 19 19 19 18 19 20 16 17 17 16 17 17 17 17 19 20 20 20 19 17 15 16 19 19 18 20 18 21 22 25 28 24 26 28 27 28 31 29 26 23 23 27 29 29 29 28 27 26 27 28 26 24 23 18 15 15 18 20 19 20 16 14 14 15 15 15
21 20 20 20 21 20 21 21 22 22 22 22 22 23 22 22 22 21 20 21 19 19 18 19 19 19 19 19 18 16 17 18 16 18 20 21 21 20 18 15 15 17 20 22 18 17 20 20 23 25 28 29 28 30 29 30 30 28 28 26 26 30 29 29 27 26 25 26 28 28 27 21 19 17 17 19 19 18 16 19 20 19 17 15 16
21 20 21 20 22 22 22 22 22 23 23 22 23 23 23 23 23 21 21 21 21 21 21 21 21 20 19 19 18 16 17 18 19 18 18 20 21 22 19 15 14 13 17 20 19 18 20 20 22 24 28 31 31 31 29 29 30 29 29 27 27 28 26 27 26 25 27 27 26 26 25 23 20 16 16 18 19 18 17 17 20 20 20 19 17
21 21 20 21 22 22 23 23 23 24 23 23 23 23 23 24 23 22 23 21 22 21 21 21 22 19 18 20 19 18 16 14 15 15 16 17 17 18 18 14 12 11 13 16 19 20 17 16 18 23 25 28 31 33 31 30 30 31 30 28 27 26 26 27 26 26 27 30 27 24 23 22 17 16 17 20 18 17 18 18 20 20 20 19 18
21 21 20 21 20 23 22 23 23 23 23 24 25 24 24 24 23 24 23 24 24 23 24 23 22 21 20 19 18 16 18 18 16 16 14 14 16 17 17 15 12 11 10 12 16 17 16 16 17 21 25 28 28 31 32 30 30 32 31 31 29 26 26 27 26 28 29 30 32 26 25 23 22 21 18 19 20 20 20 21 22 19 17 16 20
23 21 21 21 21 23 22 23 23 23 23 25 26 25 24 26 23 24 24 25 24 24 25 24 23 23 20 21 20 16 14 18 18 18 17 14 13 13 14 14 12 10 10 10 13 13 14 14 16 16 20 23 24 29 31 31 29 30 29 28 30 31 27 27 29 31 34 37 34 31 28 29 25 19 27 19 21 23 24 24 22 19 18 18 19
21 21 21 22 22 23 23 23 23 22 23 25 26 25 26 26 26 26 26 26 27 26 25 24 nan nan nan nan nan nan nan nan 14 nan nan 15 13 12 12 10 11 12 12 10 11 12 11 13 13 15 17 18 21 24 27 28 28 29 31 29 30 29 25 28 28 28 31 29 26 27 nan 21 20 19 22 19 23 21 20 23 17 15 24 22 24
21 22 23 23 22 24 25 24 23 22 24 25 25 26 27 27 29 27 28 29 28 26 25 25 24 24 24 23 22 nan 19 19 16 17 18 15 14 13 12 13 10 9 9 10 10 9 11 11 13 14 16 16 18 20 22 24 27 28 30 28 29 29 29 28 29 26 31 31 nan nan 27 24 nan 25 22 18 nan 19 21 19 25 28 26 25 25
22 23 24 23 23 24 26 24 23 23 24 25 26 28 27 28 28 29 29 28 27 26 26 27 nan 24 nan 24 nan nan 20 19 19 17 17 15 14 15 12 13 12 11 8 10 10 7 9 10 nan 12 nan 16 nan 16 19 21 23 24 nan 23 26 29 29 29 28 28 30 29 28 29 28 26 nan nan nan nan nan 26 18 19 21 28 28 25 24
22 24 24 24 21 23 24 24 23 23 25 25 28 27 27 27 27 27 28 27 28 25 27 26 27 28 28 26 25 24 23 20 19 18 17 16 15 14 13 12 13 12 12 11 11 10 nan nan nan nan nan nan nan nan nan nan 20 21 20 nan 19 21 24 28 27 28 28 30 31 29 27 nan 27 26 28 nan nan 31 26 nan 30 31 31 28 26
27 24 22 22 20 21 22 23 24 24 27 26 29 26 27 28 27 25 27 26 27 29 29 27 28 28 27 27 26 25 25 22 20 19 19 nan 15 15 15 14 10 nan nan 13 nan 11 nan nan nan nan 11 10 nan nan nan nan nan nan nan nan 19 17 16 19 23 26 26 27 nan 29 26 25 26 25 29 31 30 nan nan nan nan 33 32 26 22
33 23 20 18 18 18 21 22 24 24 27 27 28 25 25 27 26 24 27 25 30 31 28 27 27 27 26 26 26 26 25 24 22 20 nan nan nan nan nan nan nan nan nan nan nan nan nan nan nan nan nan nan nan nan nan nan nan nan nan nan nan nan nan nan 18 20 22 nan nan nan nan 29 28 nan 30 28 24 20 nan nan nan nan nan nan nan
28 25 17 17 17 20 22 22 25 25 27 27 27 26 25 26 24 22 24 26 31 29 27 27 26 25 24 25 26 26 26 24 23 22 nan nan nan nan nan nan nan nan nan nan nan nan nan nan nan nan nan nan nan nan nan nan nan nan nan nan nan nan nan nan nan nan nan nan nan nan nan nan nan 29 27 26 24 nan nan nan nan nan nan nan nan
25 27 22 17 24 24 25 24 26 26 28 27 26 26 25 25 23 22 21 25 28 28 27 26 26 24 24 24 24 25 25 26 25 24 22 nan nan nan nan nan nan nan nan nan nan nan nan nan nan nan nan nan nan nan nan nan nan nan nan nan nan nan nan nan nan nan nan nan nan nan nan nan nan nan nan nan nan nan nan nan nan nan nan nan nan
Wind_Direction
287 284 277 271 270 266 261 252 248 248 249 251 256 258 259 256 257 257 258 260 262 263 264 263 263 263 263 263 264 263 263 264 265 265 265 265 263 258 252 249 248 250 253 252 245 242 240 241 241 241 242 243 243 243 243 244 247 253 255 259 259 260 264 269 275 280 nan nan nan nan nan nan nan nan nan nan nan nan nan nan nan nan nan nan nan
287 286 280 274 272 272 267 259 254 251 251 250 251 255 253 253 254 256 259 261 263 265 266 267 266 265 265 265 265 264 264 263 262 260 261 263 262 260 257 252 246 242 256 260 253 245 242 241 242 242 243 239 244 244 244 244 241 241 255 260 262 264 270 272 275 nan nan nan nan nan nan nan nan nan nan nan nan nan nan nan nan nan nan nan nan
286 283 278 273 267 269 270 265 263 259 255 251 251 251 252 253 255 260 262 265 267 269 269 269 269 268 267 266 265 266 265 263 261 258 256 258 258 257 257 256 249 239 240 247 258 251 246 243 244 248 248 248 240 245 247 245 245 245 245 250 257 264 270 279 288 295 nan nan nan nan nan nan nan nan nan nan nan nan nan nan nan nan nan nan nan
287 279 275 272 269 271 270 268 267 266 259 253 252 251 254 258 260 264 266 270 272 272 272 271 271 270 269 267 266 266 264 263 261 259 256 254 254 256 257 258 256 246 244 243 246 255 252 246 248 250 247 247 250 247 249 246 246 248 249 251 255 261 271 280 290 301 308 307 nan nan nan nan nan 261 nan nan nan nan nan nan nan nan nan nan nan
281 275 269 269 271 272 274 272 269 268 265 258 256 258 260 263 266 269 269 269 269 269 269 269 270 269 269 268 267 265 263 262 261 260 258 255 254 255 258 259 262 259 253 251 243 243 252 249 250 250 252 256 256 251 249 249 248 250 250 253 258 265 271 285 301 315 322 325 nan nan nan nan nan nan nan nan nan nan nan nan nan nan nan nan nan
271 267 265 269 274 273 276 279 271 269 270 267 266 267 267 268 269 269 269 267 264 263 262 263 265 267 268 267 266 264 262 261 261 260 259 257 256 255 254 258 261 264 260 255 249 249 253 255 254 251 252 253 250 248 248 248 249 250 253 255 257 259 265 279 298 317 333 346 336 nan nan nan nan nan nan nan nan nan nan nan nan nan nan nan nan
266 265 265 266 276 275 279 288 276 272 275 270 267 268 270 269 267 265 264 262 262 262 262 263 263 265 267 267 267 264 263 262 260 259 258 257 256 256 256 256 257 263 265 265 255 244 254 259 257 254 252 252 252 251 249 249 250 250 250 251 255 253 259 268 293 322 350 356 17 359 nan nan nan nan nan nan nan nan nan nan nan nan nan nan nan
268 271 275 272 274 279 287 298 288 277 272 266 262 261 263 263 263 265 267 268 268 267 267 267 268 268 268 268 268 267 265 263 261 259 258 257 256 253 254 253 255 255 260 265 272 267 250 239 247 252 251 251 252 253 253 251 251 253 252 253 251 252 248 273 312 336 349 346 13 8 nan nan nan nan nan nan nan nan nan nan nan nan nan nan nan
268 272 283 284 283 290 290 288 285 279 272 266 263 258 258 262 264 266 269 272 274 275 275 273 273 272 272 272 271 271 271 268 264 261 258 257 256 254 251 252 252 252 254 257 261 259 256 253 250 252 251 250 250 252 253 252 251 253 255 257 255 251 263 251 331 354 339 8 26 nan nan nan nan nan nan nan nan nan nan nan nan nan nan nan nan
281 287 295 296 298 304 296 285 275 272 272 275 273 266 261 262 266 269 271 273 276 277 277 276 276 275 273 273 273 272 272 270 268 264 261 259 258 256 254 253 252 253 252 253 258 260 259 261 259 254 250 248 250 249 250 252 249 249 252 256 260 263 243 212 185 174 318 39 nan nan nan nan nan nan nan nan nan nan nan nan nan nan nan nan nan
297 309 314 309 305 302 291 282 274 270 277 282 283 273 257 254 261 265 271 273 274 277 277 276 275 275 274 273 272 270 270 269 270 267 265 264 263 260 258 255 254 254 258 260 262 263 259 260 258 256 253 249 249 248 248 251 253 249 247 247 244 227 203 188 174 211 191 nan nan 288 296 nan nan nan nan nan nan nan nan nan nan nan nan nan nan
305 315 316 310 303 291 292 286 284 282 278 280 285 279 268 264 264 262 266 275 277 281 282 279 277 278 280 279 274 271 270 268 268 268 263 267 266 265 263 258 257 261 260 262 264 262 259 255 260 259 257 254 250 247 244 246 250 250 242 235 223 226 212 170 197 213 198 nan nan 298 nan nan nan nan nan nan nan nan nan nan nan nan nan nan nan
316 312 306 296 290 286 287 291 290 286 281 283 281 284 283 276 269 268 260 272 280 281 282 279 278 277 281 282 274 267 268 268 267 267 262 260 263 264 265 264 263 261 259 261 263 261 258 260 263 262 261 257 253 249 244 243 244 246 242 230 217 223 209 168 193 192 nan nan nan nan nan nan nan nan 319 314 nan nan nan nan nan nan nan nan nan
320 311 304 292 288 299 294 292 291 292 289 285 282 278 277 269 269 267 261 252 273 279 277 279 276 275 278 281 275 265 265 267 267 264 263 264 264 259 265 270 268 266 267 265 258 261 266 267 266 266 264 260 257 253 248 241 240 237 235 224 208 204 194 176 161 185 nan nan 272 nan nan nan nan nan nan nan nan nan nan nan nan nan nan nan nan
320 318 311 305 308 314 308 300 293 290 288 288 286 274 268 267 266 267 263 262 263 266 267 268 266 265 272 277 283 271 263 265 265 267 265 267 268 264 262 277 275 272 271 271 273 268 269 272 270 268 265 263 259 256 254 246 235 227 221 208 199 189 181 193 199 195 nan nan 272 nan nan nan nan nan nan nan nan nan nan nan nan nan nan nan nan
319 323 323 320 326 318 308 309 301 294 288 285 287 289 277 274 270 272 267 268 270 267 268 267 265 264 270 285 281 273 267 267 267 267 268 269 270 268 264 276 276 275 272 274 275 272 271 275 274 270 266 263 260 256 253 249 237 224 212 206 192 184 178 194 207 204 nan nan 256 nan nan nan nan nan nan nan nan nan nan nan nan nan nan nan nan
325 326 332 327 326 323 314 310 308 308 301 294 289 294 295 285 278 275 272 269 271 273 272 273 272 271 273 287 284 281 276 272 270 265 267 266 266 268 268 267 277 276 274 273 273 268 267 270 271 270 267 262 259 256 248 242 238 222 214 208 194 183 184 195 210 209 nan nan 266 nan nan nan nan nan nan nan nan nan nan nan nan nan nan nan nan
322 326 327 327 322 320 318 311 310 309 305 302 300 300 300 294 291 281 279 274 272 275 276 277 277 275 274 286 290 289 283 277 271 265 264 267 272 274 270 265 273 272 271 273 273 269 263 264 266 264 263 263 261 256 250 242 236 229 222 213 198 191 191 194 225 215 nan nan 261 260 nan 293 303 302 nan nan nan nan nan nan nan nan nan nan nan
329 318 319 319 318 319 314 311 315 314 316 312 310 311 312 309 300 295 287 286 281 278 277 277 279 275 278 287 294 296 291 282 273 268 263 268 276 272 266 262 271 269 269 270 271 268 263 264 262 261 260 260 258 255 248 243 235 232 228 219 206 195 184 201 223 233 nan 249 256 nan nan 296 300 305 313 nan nan nan nan nan nan nan nan nan nan
316 312 311 314 313 312 315 316 317 317 322 320 318 323 332 327 319 313 304 299 295 289 289 288 287 290 289 292 292 288 286 279 277 271 272 272 274 268 270 266 271 268 268 269 267 265 254 252 262 261 260 259 258 254 250 243 237 232 227 223 214 196 210 222 216 242 nan 254 255 nan 271 288 301 306 313 314 nan nan nan nan nan nan nan nan nan
308 307 306 310 305 306 310 316 323 321 317 312 315 325 333 333 334 324 319 303 300 301 304 305 302 296 296 298 293 281 272 276 283 279 281 277 272 261 268 271 266 268 268 270 268 269 274 266 260 262 261 259 257 254 250 246 241 234 228 221 218 219 221 224 218 246 nan 259 260 262 279 281 295 305 305 311 315 nan nan nan nan nan nan nan nan
303 305 303 309 312 317 323 317 321 323 317 318 321 325 333 339 336 331 322 315 310 313 320 320 319 305 300 288 275 276 273 270 263 278 281 277 270 272 275 274 267 259 270 271 272 269 264 261 263 264 262 259 257 250 248 245 243 241 234 222 225 229 226 224 233 nan nan 258 260 272 283 278 285 299 302 305 311 310 nan nan nan nan nan nan nan
313 309 305 310 314 318 321 320 323 325 320 313 327 326 331 328 329 330 321 328 325 330 334 330 314 312 307 293 296 293 286 278 276 273 274 282 277 278 277 273 266 256 260 270 271 270 266 263 265 267 263 258 250 246 247 249 246 247 240 233 232 228 225 230 232 233 nan 258 259 283 284 280 281 292 301 306 308 306 306 nan nan nan nan nan nan
313 311 311 318 314 319 322 325 329 336 326 321 326 329 322 322 326 325 325 319 324 342 336 320 297 309 303 303 305 296 285 278 272 282 279 271 269 273 274 271 268 264 264 261 263 266 264 258 257 260 255 249 247 246 245 248 247 246 243 237 231 228 229 230 232 nan nan 263 265 291 287 282 279 284 295 303 305 307 304 301 nan nan nan nan nan
308 306 304 310 315 319 327 322 323 326 325 320 323 328 326 329 327 326 319 336 328 334 335 330 321 319 325 325 309 306 290 290 288 275 270 273 270 268 266 265 265 262 267 259 260 260 257 252 246 247 246 249 248 246 244 242 247 246 243 240 234 233 231 234 227 233 nan 259 268 292 290 284 279 279 286 296 300 304 304 299 301 nan nan nan nan
299 300 305 309 307 318 320 321 325 326 325 323 339 329 321 316 327 320 333 334 332 338 341 335 334 339 338 314 304 309 286 282 271 267 272 269 270 269 267 264 264 264 266 259 254 249 254 247 240 238 242 243 246 246 244 241 240 247 nan 245 241 235 237 235 234 231 243 259 267 288 287 286 284 282 281 288 296 301 302 299 298 303 nan nan nan
300 300 303 304 305 309 317 320 317 317 320 326 324 331 325 317 314 321 324 333 333 337 340 338 347 351 332 322 324 328 305 281 270 276 271 277 267 261 259 257 259 258 255 255 254 250 246 245 242 237 229 225 224 228 242 246 243 247 248 248 245 239 239 237 240 nan 249 256 266 282 282 286 288 287 286 286 290 298 303 301 299 303 311 nan nan
303 305 305 305 302 305 311 314 318 317 324 325 323 327 328 319 319 315 321 332 333 333 337 342 351 338 341 330 319 318 328 313 314 296 289 284 276 267 264 262 256 251 252 251 252 251 249 245 240 235 229 224 221 217 nan nan 247 238 nan nan 246 242 240 236 239 nan 253 257 265 276 280 283 291 292 295 292 288 294 302 304 304 305 309 311 316
302 302 301 300 302 306 307 308 309 307 313 319 317 326 318 307 311 318 319 326 326 329 333 336 337 338 329 312 316 327 328 332 317 309 301 285 274 263 265 265 258 251 248 247 249 251 249 243 236 232 229 223 224 222 215 nan 240 nan nan nan nan nan 239 236 235 nan nan 258 262 270 282 285 290 296 300 300 296 292 297 305 307 307 308 311 313
299 302 299 298 299 298 296 299 301 301 307 306 315 305 296 300 308 311 314 315 316 318 323 321 323 330 322 310 320 328 328 323 316 308 301 286 270 253 238 247 251 246 244 247 249 250 244 234 231 230 223 221 224 227 226 209 nan nan nan nan nan nan nan nan nan nan nan 258 256 263 283 284 290 296 297 300 301 298 297 298 302 306 309 311 312
298 295 297 295 293 292 293 295 300 297 291 290 295 292 294 303 313 310 307 314 310 312 312 314 317 324 321 323 322 322 322 323 327 328 321 300 273 263 255 256 258 261 256 256 257 254 247 237 230 229 225 226 224 227 224 213 207 218 228 nan nan nan nan nan nan nan nan 253 263 265 274 289 289 293 294 296 298 301 300 299 300 304 311 311 314
296 294 293 293 288 288 290 294 300 299 293 291 292 293 295 293 286 291 298 303 305 309 311 311 313 317 321 325 328 333 335 333 332 332 331 308 283 270 264 262 261 253 249 248 252 249 243 240 239 230 222 220 217 219 216 210 197 218 228 230 233 236 236 240 nan nan nan nan 262 265 271 280 291 295 293 292 292 296 301 301 299 303 309 312 312
289 289 291 291 290 290 292 296 297 300 295 285 282 288 292 289 290 292 297 303 309 311 310 310 311 320 327 329 332 337 343 340 333 337 334 325 299 285 277 267 267 257 249 246 240 240 241 242 243 238 225 225 225 212 200 196 187 217 228 230 233 235 242 244 241 237 231 236 254 266 267 270 280 297 296 290 285 285 291 298 300 301 305 310 313
291 291 289 288 290 290 292 294 297 295 293 291 287 284 287 291 292 294 297 300 299 304 314 323 319 322 329 327 336 340 345 342 337 343 337 331 319 296 279 273 269 260 254 247 244 242 244 247 245 243 237 232 223 213 205 191 191 228 233 232 240 238 240 245 245 244 246 246 240 236 245 264 261 262 265 279 282 280 283 290 297 301 302 306 310
290 290 288 286 289 290 292 292 296 293 295 294 293 293 288 292 293 295 295 296 298 299 301 302 305 319 320 323 332 337 340 342 340 342 343 341 329 311 297 284 269 263 256 252 249 245 247 249 251 243 240 234 226 211 213 205 nan 220 239 233 237 241 241 244 247 248 253 254 246 nan 236 224 249 260 259 260 270 283 284 291 296 297 297 295 303
288 289 287 287 288 291 294 293 294 295 292 293 291 289 288 288 289 288 292 292 293 296 298 303 304 309 312 318 322 328 335 338 340 342 346 344 340 326 306 287 272 262 259 257 251 244 243 245 248 247 243 243 238 236 235 228 218 207 215 234 238 239 242 242 244 249 248 248 250 247 240 230 211 222 246 261 265 269 288 288 294 293 294 294 295
289 288 291 291 290 292 293 293 294 293 294 293 292 293 293 291 290 291 291 290 291 291 293 297 298 304 309 312 322 325 330 334 337 339 340 345 342 336 319 291 283 263 250 254 254 242 239 238 242 243 247 247 245 238 237 241 233 226 217 215 231 240 244 244 244 246 245 248 247 238 236 238 229 216 213 230 252 260 277 293 292 298 299 299 298
290 290 291 294 294 294 294 292 292 291 292 292 295 297 294 294 291 290 291 290 290 292 295 295 300 299 303 311 316 320 331 335 339 336 341 346 346 344 335 318 287 272 262 261 263 248 239 243 243 241 244 249 247 242 237 237 234 230 229 225 225 239 241 244 246 247 249 253 249 244 237 241 247 237 234 246 246 247 255 278 297 300 303 302 307
288 292 294 294 295 296 291 294 293 292 292 294 291 290 294 291 292 293 291 291 290 292 291 290 290 298 304 307 312 321 325 332 337 339 340 346 350 349 342 331 309 286 273 266 269 271 265 255 250 252 251 252 248 242 233 230 232 231 227 223 226 231 238 244 247 247 250 251 250 252 257 260 256 255 253 251 253 258 258 261 270 273 278 303 307
293 297 298 298 298 295 296 294 294 293 291 292 295 296 297 298 296 295 296 295 294 296 299 296 300 302 301 302 307 315 324 331 335 335 343 345 353 351 346 338 310 297 281 278 270 268 261 256 251 246 249 250 251 250 244 237 238 236 234 231 232 234 234 244 245 243 245 246 246 251 259 259 250 248 256 258 259 261 265 261 271 275 276 290 314
297 300 300 301 300 300 298 299 295 294 296 294 293 292 293 293 292 292 289 291 286 285 283 286 288 285 290 297 303 311 311 315 321 326 338 339 345 348 346 340 319 294 276 264 270 273 280 273 258 251 246 248 250 251 250 247 241 234 236 235 234 241 238 234 234 240 244 246 247 251 249 245 252 258 257 264 265 266 266 268 270 275 280 280 294
298 299 302 300 299 297 298 294 294 297 295 295 289 288 290 291 294 295 295 291 294 295 292 290 291 293 295 295 296 301 310 315 319 320 329 332 340 346 352 347 329 314 291 275 265 263 267 271 264 254 251 248 248 247 249 249 250 244 233 231 234 236 239 239 236 234 239 245 248 252 248 242 244 254 260 261 267 265 264 265 269 270 272 275 282
298 301 301 298 299 295 295 294 297 298 297 293 291 292 293 292 296 293 292 289 282 281 283 283 287 292 294 298 294 296 301 309 318 323 321 321 328 335 340 350 341 322 311 292 278 267 266 270 268 268 260 257 252 251 250 248 251 240 237 238 237 231 236 238 240 235 233 237 237 237 236 247 250 248 240 243 257 253 252 253 254 263 264 266 272
295 299 300 301 298 295 294 295 297 298 297 292 293 292 288 292 287 289 286 289 288 285 285 287 nan nan nan nan nan nan nan nan 294 nan nan 314 316 321 327 336 340 341 330 317 300 295 288 284 288 275 275 268 259 251 249 251 249 240 234 241 245 241 231 239 234 234 239 238 237 239 nan 235 255 250 257 248 254 249 256 261 249 259 254 245 240
296 298 298 298 293 298 295 295 296 295 292 292 292 286 284 286 284 284 281 281 286 288 291 292 289 289 294 294 293 nan 293 293 294 297 303 305 308 310 318 321 328 331 331 329 319 305 297 288 275 270 270 272 264 257 248 248 250 242 242 242 245 244 244 241 237 239 238 236 nan nan 233 222 nan 246 239 237 nan 251 258 258 252 244 246 252 251
293 293 292 293 292 295 297 294 295 291 292 293 290 287 287 287 287 288 290 290 290 293 293 290 nan 298 nan 290 nan nan 284 285 286 286 291 299 304 305 306 309 318 321 325 325 325 329 315 294 nan 275 nan 261 nan 256 255 254 251 253 nan 247 244 248 245 242 243 241 241 246 240 234 230 228 nan nan nan nan nan 261 238 254 263 268 274 274 271
286 284 286 287 292 292 295 296 294 290 291 294 292 293 294 291 293 292 291 293 292 292 289 292 290 288 292 293 290 289 289 284 285 287 291 295 298 300 300 303 312 318 325 326 327 322 nan nan nan nan nan nan nan nan nan nan 249 253 252 nan 244 248 247 241 240 240 238 243 243 237 229 nan 232 233 242 nan nan 233 251 nan 254 259 248 246 255
272 272 274 279 288 291 293 293 292 291 290 293 293 296 297 297 299 300 297 297 294 288 286 286 289 291 294 296 296 293 291 292 289 291 293 nan 298 302 306 306 304 nan nan 314 nan 314 nan nan nan nan 309 297 nan nan nan nan nan nan nan nan 248 251 254 243 235 241 238 234 nan 236 236 235 238 240 243 238 234 nan nan nan nan 256 258 251 250
230 245 261 267 279 285 290 289 290 289 289 294 294 296 294 296 300 301 299 296 290 287 286 287 289 293 298 301 297 292 290 291 290 287 nan nan nan nan nan nan nan nan nan nan nan nan nan nan nan nan nan nan nan nan nan nan nan nan nan nan nan nan nan nan 246 248 240 nan nan nan nan 242 244 nan 248 247 246 244 nan nan nan nan nan nan nan
256 230 228 276 283 281 284 286 285 283 284 289 290 293 293 291 295 295 296 292 289 291 290 291 292 294 296 296 293 293 291 291 293 292 nan nan nan nan nan nan nan nan nan nan nan nan nan nan nan nan nan nan nan nan nan nan nan nan nan nan nan nan nan nan nan nan nan nan nan nan nan nan nan 237 244 245 243 nan nan nan nan nan nan nan nan
268 272 268 268 279 275 275 275 276 277 280 283 286 288 289 287 287 287 290 288 290 292 291 293 292 294 293 294 297 296 295 293 290 291 290 nan nan nan nan nan nan nan nan nan nan nan nan nan nan nan nan nan nan nan nan nan nan nan nan nan nan nan nan nan nan nan nan nan nan nan nan nan nan nan nan nan nan nan nan nan nan nan nan nan nan